Location: Daytona Beach
(29.2106°N, 81.0231°W)
Time: 19:51:15
(UTC-04:00)

RS-15 - Pass Details

Date: 03 October 2021
Orbit: 1884 x 2160 km, 64.8° (Epoch: 23 October)

Event Time Altitude Azimuth Distance (km) Brightness Sun altitude
Rises 22:31:22 0° 339° (NNW) 5,628 10.9 -44.5°
Reaches altitude 10° 22:35:51 10° 352° (N) 4,651 10.2 -45.3°
Enters shadow 22:42:47 24° 26° (NNE) 3,632 9.3 -46.7°
